(49003) = 1995 WM41 = 1998 QC58 = 2000 EE177

Discovered at Kitt Peak on 1998-08-30 by Spacewatch.

Orbit

Orbit type: Main Belt

Note: WebGL enabled browser required.

epoch2024-03-31.0
epoch JD2460400.5
perihelion date2021-03-05.61370
perihelion JD2459279.11370
argument of perihelion (°)211.99255
ascending node (°)181.02465
inclination (°)1.03012
eccentricity0.1856076
perihelion distance (AU)1.9480830
Tisserand w.r.t. Jupiter3.5
ΔV w.r.t. Earth (km/sec)8.7
semimajor axis (AU)2.3920693
mean anomaly (°)298.74349
mean daily motion (°/day)0.26640550
aphelion distance (AU)2.836
period (years)3.7
P-vector [x]0.83850850
P-vector [y]0.50363786
P-vector [z]0.20797213
Q-vector [x]-0.54488843
Q-vector [y]0.77525446
Q-vector [z]0.31949510
absolute magnitude15.64
phase slope0.15
uncertainty0
referenceMPEC 2024-E123
observations used1495
oppositions18
arc length (days)10150
first opposition used1995
last opposition used2023
residual rms (arc-secs)0.71
perturbers coarse indicatorM-v
perturbers precise indicator003Ek
first observation date used1995-11-27.0
last observation date used2023-09-11.0
computer nameMPCLINUX
JD of orbit computation2456731.554317
perihelion JD uncertainty (days)3.4135E-05
argument of perihelion uncertainty (°)1.7652E-04
ascending node uncertainty (°)1.7617E-04
inclination uncertainty (°)3.7112E-06
eccentricity uncertainty 3.4539E-08
perihelion distance uncertainty (AU)8.2261E-08
Minimum Orbit Intersection Distances (in AU)
for orbit epoch: 2460200.5, reference: E2023-XD2
Mercury1.61904
Venus1.22499
Earth0.95374
Mars0.48659
Jupiter2.59033
Saturn6.74984
Uranus15.7183
Neptune27.8713

Observations

1516 total observations over interval: 1995 11 27.48828 – 2023 09 11.261523
These data are available for download (format description).

Date (UT) J2000 RA J2000 Dec Magn Location Ref
1995 11 27.48828 09 29 12.56 +13 36 34.2 19.6 V 691 – Steward Observatory, Kitt Peak-Spacewatch MPC 26354
1995 11 27.50991 09 29 13.35 +13 36 29.5   691 – Steward Observatory, Kitt Peak-Spacewatch MPC 26354
1995 11 27.53150 09 29 14.04 +13 36 25.3   691 – Steward Observatory, Kitt Peak-Spacewatch MPC 26354
1995 11 28.47601 09 29 48.97 +13 33 19.2   691 – Steward Observatory, Kitt Peak-Spacewatch MPC 26354
1995 11 28.50253 09 29 49.89 +13 33 13.8 20.0 V 691 – Steward Observatory, Kitt Peak-Spacewatch MPC 26354
1995 11 28.52908 09 29 50.81 +13 33 08.3   691 – Steward Observatory, Kitt Peak-Spacewatch MPC 26354
1995 12 26.36915 09 34 59.93 +12 59 57.1 19.1 V 691 – Steward Observatory, Kitt Peak-Spacewatch MPS 81225
1995 12 26.39053 09 34 59.64 +12 59 57.7 19.2 V 691 – Steward Observatory, Kitt Peak-Spacewatch MPS 81225
1995 12 26.41193 09 34 59.23 +12 59 59.7 19.4 V 691 – Steward Observatory, Kitt Peak-Spacewatch MPS 81225
1998 08 30.44541 00 05 41.26 +01 02 35.7 18.0 V 691 – Steward Observatory, Kitt Peak-Spacewatch MPS 2055
1998 08 30.46688 00 05 40.55 +01 02 30.4 18.0 V 691 – Steward Observatory, Kitt Peak-Spacewatch MPS 2055
1998 08 30.48785 00 05 39.85 +01 02 25.7 17.9 V 691 – Steward Observatory, Kitt Peak-Spacewatch MPS 2055
1998 08 31.27585 00 05 15.73 +00 59 13.3 18.0 V 691 – Steward Observatory, Kitt Peak-Spacewatch MPS 2055
1998 08 31.29698 00 05 15.01 +00 59 07.8 18.0 V 691 – Steward Observatory, Kitt Peak-Spacewatch MPS 2055
1998 08 31.31801 00 05 14.29 +00 59 02.7 18.0 V 691 – Steward Observatory, Kitt Peak-Spacewatch MPS 2055
1998 09 14.26172 23 55 43.74 -00 13 24.0 18.1   704 – Lincoln Laboratory ETS, New Mexico MPS 2259
1998 09 14.26687 23 55 43.53 -00 13 26.2 17.5 V 691 – Steward Observatory, Kitt Peak-Spacewatch MPS 2259
1998 09 14.28360 23 55 42.66 -00 13 32.6   704 – Lincoln Laboratory ETS, New Mexico MPS 2259
1998 09 14.28759 23 55 42.47 -00 13 33.9 17.5 V 691 – Steward Observatory, Kitt Peak-Spacewatch MPS 2259
1998 09 14.30565 23 55 41.57 -00 13 41.0   704 – Lincoln Laboratory ETS, New Mexico MPS 2259
1998 09 14.30850 23 55 41.41 -00 13 41.3 17.5 V 691 – Steward Observatory, Kitt Peak-Spacewatch MPS 2259
1998 09 14.32769 23 55 40.42 -00 13 48.4   704 – Lincoln Laboratory ETS, New Mexico MPS 2259
1998 09 14.34968 23 55 39.23 -00 13 55.4 18.5   704 – Lincoln Laboratory ETS, New Mexico MPS 2259
1998 09 16.28324 23 54 05.55 -00 25 44.1 17.4 R 699 – Lowell Observatory-LONEOS MPS 2259
1998 09 16.30559 23 54 04.43 -00 25 52.6   699 – Lowell Observatory-LONEOS MPS 2259
1998 09 16.32795 23 54 03.21 -00 26 00.7   699 – Lowell Observatory-LONEOS MPS 2259
1998 09 18.31638 23 52 24.62 -00 38 22.0 17.6   704 – Lincoln Laboratory ETS, New Mexico MPS 2259
1998 09 18.32931 23 52 23.91 -00 38 26.9   704 – Lincoln Laboratory ETS, New Mexico MPS 2259
1998 09 18.34242 23 52 23.24 -00 38 32.7 17.9   704 – Lincoln Laboratory ETS, New Mexico MPS 2259
1998 09 18.35563 23 52 22.64 -00 38 38.0 18.5   704 – Lincoln Laboratory ETS, New Mexico MPS 2259
1998 09 26.12853 23 45 52.97 -01 27 35.8 18.0   704 – Lincoln Laboratory ETS, New Mexico MPS 2565
1998 09 26.14511 23 45 52.06 -01 27 41.4   704 – Lincoln Laboratory ETS, New Mexico MPS 2565
1998 09 26.16159 23 45 51.22 -01 27 48.2   704 – Lincoln Laboratory ETS, New Mexico MPS 2565
1998 09 26.17837 23 45 50.34 -01 27 55.1 18.1   704 – Lincoln Laboratory ETS, New Mexico MPS 2565
1998 09 26.19492 23 45 49.51 -01 28 00.8 18.2   704 – Lincoln Laboratory ETS, New Mexico MPS 2565
1998 09 27.21446 23 44 59.28 -01 34 19.6 18.0   704 – Lincoln Laboratory ETS, New Mexico MPS 2565
1998 09 27.23189 23 44 58.39 -01 34 25.2 18.3   704 – Lincoln Laboratory ETS, New Mexico MPS 2565
1998 09 27.24918 23 44 57.45 -01 34 32.7 18.3   704 – Lincoln Laboratory ETS, New Mexico MPS 2565
1998 09 27.26669 23 44 56.54 -01 34 39.8   704 – Lincoln Laboratory ETS, New Mexico MPS 2565
1998 09 27.28405 23 44 55.65 -01 34 45.7   704 – Lincoln Laboratory ETS, New Mexico MPS 2565
1998 09 28.18103 23 44 12.32 -01 40 15.6 18.2 V 691 – Steward Observatory, Kitt Peak-Spacewatch MPS 81225
1998 09 28.20159 23 44 11.29 -01 40 23.4 18.3 V 691 – Steward Observatory, Kitt Peak-Spacewatch MPS 81225
1998 09 28.22240 23 44 10.20 -01 40 31.1 18.1 V 691 – Steward Observatory, Kitt Peak-Spacewatch MPS 81225
1998 10 14.09186 23 33 31.80 -03 02 44.5 18.3   704 – Lincoln Laboratory ETS, New Mexico MPS 2565
1998 10 14.11206 23 33 31.25 -03 02 50.7 19.1   704 – Lincoln Laboratory ETS, New Mexico MPS 2565
1998 10 14.15222 23 33 29.98 -03 02 59.0 18.4   704 – Lincoln Laboratory ETS, New Mexico MPS 2565
1998 10 14.89771 23 33 08.52 -03 05 52.9 18.9 V 910 – Caussols-ODAS MPS 2565
1998 10 14.92549 23 33 07.68 -03 05 59.2 18.8 V 910 – Caussols-ODAS MPS 2565
1998 10 14.94925 23 33 06.96 -03 06 04.5 18.9 V 910 – Caussols-ODAS MPS 2565
1998 10 15.10415 23 33 02.99 -03 06 41.0 18.6   704 – Lincoln Laboratory ETS, New Mexico MPS 2565
1998 10 15.12330 23 33 02.60 -03 06 41.0 18.6   704 – Lincoln Laboratory ETS, New Mexico MPS 2565
1998 10 15.14285 23 33 02.03 -03 06 46.1 18.6   704 – Lincoln Laboratory ETS, New Mexico MPS 2565
1998 10 15.16216 23 33 01.41 -03 06 49.7 18.6   704 – Lincoln Laboratory ETS, New Mexico MPS 2565
1998 10 15.18126 23 33 00.72 -03 06 55.1 18.9   704 – Lincoln Laboratory ETS, New Mexico MPS 2565
1998 10 18.82524 23 31 32.86 -03 19 10.1 19.1 V 910 – Caussols-ODAS MPS 2565
1998 10 18.84793 23 31 32.34 -03 19 14.1 18.6 V 910 – Caussols-ODAS MPS 2565
1998 10 18.87328 23 31 31.76 -03 19 18.5 18.8 V 910 – Caussols-ODAS MPS 2565
1998 10 19.83358 23 31 12.84 -03 22 03.4 19.0 V 910 – Caussols-ODAS MPS 2565
1998 10 19.85612 23 31 12.38 -03 22 07.0 18.9 V 910 – Caussols-ODAS MPS 2565
1998 10 19.87880 23 31 11.89 -03 22 10.8 18.7 V 910 – Caussols-ODAS MPS 2565
1998 10 22.90599 23 30 23.87 -03 29 29.4 18.9 V 910 – Caussols-ODAS MPS 2565
1998 10 22.93346 23 30 23.45 -03 29 33.0 19.1 V 910 – Caussols-ODAS MPS 2565
1998 10 22.95680 23 30 23.11 -03 29 35.8 18.8 V 910 – Caussols-ODAS MPS 2565
1998 11 10.15027 23 32 05.95 -03 29 30.5 18.4 R 699 – Lowell Observatory-LONEOS MPS 56838
1998 11 10.17626 23 32 06.61 -03 29 27.7   699 – Lowell Observatory-LONEOS MPS 56838
1998 11 10.20108 23 32 07.02 -03 29 24.4   699 – Lowell Observatory-LONEOS MPS 56838
2000 02 24.88503 11 24 45.21 +03 18 17.9 18.0 R 159 – Monte Agliale MPS 10758
2000 02 24.89082 11 24 44.88 +03 18 20.2 18.3 R 159 – Monte Agliale MPS 10758
2000 02 24.89690 11 24 44.60 +03 18 21.2 18.4 R 159 – Monte Agliale MPS 10758
2000 02 24.93456 11 24 42.64 +03 18 35.5 18.1 R 159 – Monte Agliale MPS 10758
2000 02 24.93920 11 24 42.40 +03 18 35.8 18.0 R 159 – Monte Agliale MPS 10758
2000 02 24.94151 11 24 42.22 +03 18 37.6 18.3 R 159 – Monte Agliale MPS 10758
2000 02 27.88258 11 22 04.32 +03 36 25.5 18.3 R 159 – Monte Agliale MPS 10758
2000 02 29.38635 11 20 41.43 +03 45 45.5 18.6   704 – Lincoln Laboratory ETS, New Mexico MPS 10758
2000 02 29.39977 11 20 40.63 +03 45 50.4 18.6   704 – Lincoln Laboratory ETS, New Mexico MPS 10758
2000 02 29.41317 11 20 39.93 +03 45 54.8 18.8   704 – Lincoln Laboratory ETS, New Mexico MPS 10758
2000 03 03.32668 11 17 57.27 +04 04 13.9   704 – Lincoln Laboratory ETS, New Mexico MPS 10758
2000 03 03.35104 11 17 55.86 +04 04 22.9 18.7 V 691 – Steward Observatory, Kitt Peak-Spacewatch MPS 16926
2000 03 03.37125 11 17 54.69 +04 04 32.1   704 – Lincoln Laboratory ETS, New Mexico MPS 10758
2000 03 03.37315 11 17 54.56 +04 04 31.3 18.7 V 691 – Steward Observatory, Kitt Peak-Spacewatch MPS 16926
2000 03 03.38556 11 17 53.87 +04 04 37.2   704 – Lincoln Laboratory ETS, New Mexico MPS 10758
2000 03 03.39485 11 17 53.30 +04 04 39.6 18.6 V 691 – Steward Observatory, Kitt Peak-Spacewatch MPS 16927
2000 03 03.39975 11 17 53.05 +04 04 42.9   704 – Lincoln Laboratory ETS, New Mexico MPS 10758
2000 03 08.29323 11 13 16.12 +04 35 49.1 19.1 V 691 – Steward Observatory, Kitt Peak-Spacewatch MPS 10758
2000 03 08.29901 11 13 15.79 +04 35 51.4 19.3 V 691 – Steward Observatory, Kitt Peak-Spacewatch MPS 10758
2000 03 08.30491 11 13 15.42 +04 35 53.8 20.1 V 691 – Steward Observatory, Kitt Peak-Spacewatch MPS 10758
